Time,TemperatureF,DewpointF,PressureIn,WindDirection,WindDirectionDegrees,WindSpeedMPH,WindSpeedGustMPH,Humidity,HourlyPrecipIn,Conditions,Clouds,dailyrainin,SoftwareType,DateUTC
2013-03-02 00:01:00,21.9,16.7,29.35,NNW,338,0.0,6.7,80,0.00,,,0.00,WUHU216HW,2013-03-02 06:01:00,
2013-03-02 00:06:00,22.2,17.0,29.36,NW,315,5.1,6.7,80,0.00,,,0.00,WUHU216HW,2013-03-02 06:06:00,
2013-03-02 00:11:00,22.1,16.8,29.35,NW,315,2.0,5.1,80,0.00,,,0.00,WUHU216HW,2013-03-02 06:11:00,
2013-03-02 00:16:00,22.1,16.8,29.36,NW,315,0.0,5.1,80,0.00,,,0.00,WUHU216HW,2013-03-02 06:16:00,
2013-03-02 00:21:00,21.9,16.7,29.36,NNW,338,0.0,0.0,80,0.00,,,0.00,WUHU216HW,2013-03-02 06:21:00,
2013-03-02 00:26:00,21.9,16.7,29.36,NNW,338,7.1,7.1,80,0.00,,,0.00,WUHU216HW,2013-03-02 06:26:00,
2013-03-02 00:31:00,21.9,16.7,29.36,NNW,338,8.0,8.0,80,0.00,,,0.00,WUHU216HW,2013-03-02 06:31:00,
2013-03-02 00:36:00,21.9,16.7,29.36,NNW,338,3.1,8.0,80,0.00,,,0.00,WUHU216HW,2013-03-02 06:36:00,
2013-03-02 00:41:00,21.7,16.5,29.36,NW,315,0.0,6.2,80,0.00,,,0.00,WUHU216HW,2013-03-02 06:41:00,
2013-03-02 00:46:00,21.5,16.3,29.36,NW,315,6.7,6.7,80,0.00,,,0.00,WUHU216HW,2013-03-02 06:46:00,
2013-03-02 00:51:00,21.0,15.8,29.37,NNW,338,8.2,8.2,80,0.00,,,0.00,WUHU216HW,2013-03-02 06:51:00,
2013-03-02 00:56:00,20.8,15.8,29.37,NW,315,0.0,8.2,80,0.00,,,0.00,WUHU216HW,2013-03-02 06:56:00,
2013-03-02 01:01:00,20.8,15.8,29.37,NW,315,0.0,6.0,81,0.00,,,0.00,WUHU216HW,2013-03-02 07:01:00,
2013-03-02 01:06:00,20.8,15.8,29.37,NW,315,0.0,0.0,81,0.00,,,0.00,WUHU216HW,2013-03-02 07:06:00,
2013-03-02 01:11:00,20.4,15.5,29.37,NNW,338,5.5,5.5,81,0.00,,,0.00,WUHU216HW,2013-03-02 07:11:00,
2013-03-02 01:17:00,20.4,15.5,29.37,NNW,338,3.5,5.5,81,0.00,,,0.00,WUHU216HW,2013-03-02 07:17:00,
2013-03-02 01:22:00,20.4,15.5,29.37,NNW,338,4.6,5.5,81,0.00,,,0.00,WUHU216HW,2013-03-02 07:22:00,
2013-03-02 01:27:00,20.4,15.5,29.37,NNW,338,0.0,4.6,81,0.00,,,0.00,WUHU216HW,2013-03-02 07:27:00,
2013-03-02 01:32:00,20.4,15.5,29.37,NNW,338,0.0,2.0,81,0.00,,,0.00,WUHU216HW,2013-03-02 07:32:00,
2013-03-02 01:37:00,20.4,15.5,29.37,NNW,338,0.0,0.0,81,0.00,,,0.00,WUHU216HW,2013-03-02 07:37:00,
2013-03-02 01:42:00,20.3,15.3,29.37,NW,315,5.3,5.3,81,0.00,,,0.00,WUHU216HW,2013-03-02 07:42:00,
2013-03-02 01:47:00,20.1,15.1,29.36,NW,315,0.0,6.7,81,0.00,,,0.00,WUHU216HW,2013-03-02 07:47:00,
2013-03-02 01:52:00,20.1,15.1,29.37,NW,315,5.3,6.7,81,0.00,,,0.00,WUHU216HW,2013-03-02 07:52:00,
2013-03-02 01:57:00,20.1,15.4,29.37,NW,315,0.0,5.3,82,0.00,,,0.00,WUHU216HW,2013-03-02 07:57:00,
2013-03-02 02:02:00,20.1,15.4,29.37,NW,315,0.0,0.8,82,0.00,,,0.00,WUHU216HW,2013-03-02 08:02:00,
2013-03-02 02:07:00,20.1,15.4,29.37,NW,315,0.0,0.0,82,0.00,,,0.00,WUHU216HW,2013-03-02 08:07:00,
2013-03-02 02:12:00,20.1,15.4,29.37,NW,315,0.0,0.0,82,0.00,,,0.00,WUHU216HW,2013-03-02 08:12:00,
2013-03-02 02:17:00,20.3,15.6,29.36,NW,315,7.1,7.1,82,0.00,,,0.00,WUHU216HW,2013-03-02 08:17:00,
2013-03-02 02:22:00,20.3,15.6,29.36,NW,315,0.0,7.1,82,0.00,,,0.00,WUHU216HW,2013-03-02 08:22:00,
2013-03-02 02:27:00,20.4,15.8,29.36,NW,315,0.0,7.1,82,0.00,,,0.00,WUHU216HW,2013-03-02 08:27:00,
2013-03-02 02:32:00,20.4,15.8,29.36,NW,315,0.0,0.0,82,0.00,,,0.00,WUHU216HW,2013-03-02 08:32:00,
2013-03-02 02:37:00,20.4,15.8,29.36,NW,315,5.3,5.3,82,0.00,,,0.00,WUHU216HW,2013-03-02 08:37:00,
2013-03-02 02:42:00,20.6,15.9,29.36,NW,315,0.0,5.3,82,0.00,,,0.00,WUHU216HW,2013-03-02 08:42:00,
2013-03-02 02:48:00,20.8,16.1,29.36,NW,315,0.0,5.3,82,0.00,,,0.00,WUHU216HW,2013-03-02 08:48:00,
2013-03-02 02:53:00,20.8,16.1,29.35,NW,315,4.6,4.6,82,0.00,,,0.00,WUHU216HW,2013-03-02 08:53:00,
2013-03-02 02:58:00,21.0,16.3,29.35,NW,315,0.0,4.6,82,0.00,,,0.00,WUHU216HW,2013-03-02 08:58:00,
2013-03-02 03:03:00,21.0,16.3,29.35,NW,315,0.0,4.6,82,0.00,,,0.00,WUHU216HW,2013-03-02 09:03:00,
2013-03-02 03:08:00,21.0,16.3,29.35,NW,315,4.0,4.0,82,0.00,,,0.00,WUHU216HW,2013-03-02 09:08:00,
2013-03-02 03:13:00,21.3,16.7,29.35,NNW,338,4.0,4.0,82,0.00,,,0.00,WUHU216HW,2013-03-02 09:13:00,
2013-03-02 03:18:00,21.3,16.7,29.36,NW,315,0.0,4.0,82,0.00,,,0.00,WUHU216HW,2013-03-02 09:18:00,
2013-03-02 03:23:00,21.3,16.7,29.36,NW,315,0.0,0.0,82,0.00,,,0.00,WUHU216HW,2013-03-02 09:23:00,
2013-03-02 03:28:00,21.3,16.7,29.35,NW,315,0.0,0.0,82,0.00,,,0.00,WUHU216HW,2013-03-02 09:28:00,
2013-03-02 03:33:00,21.5,16.8,29.36,NW,315,0.0,0.0,82,0.00,,,0.00,WUHU216HW,2013-03-02 09:33:00,
2013-03-02 03:38:00,21.5,16.8,29.35,NW,315,0.0,5.5,82,0.00,,,0.00,WUHU216HW,2013-03-02 09:38:00,
2013-03-02 03:43:00,21.7,17.0,29.35,NW,315,0.0,5.5,82,0.00,,,0.00,WUHU216HW,2013-03-02 09:43:00,
2013-03-02 03:48:00,21.7,17.0,29.36,NW,315,0.0,3.8,82,0.00,,,0.00,WUHU216HW,2013-03-02 09:48:00,
2013-03-02 03:53:00,21.7,17.0,29.36,NW,315,0.0,0.0,82,0.00,,,0.00,WUHU216HW,2013-03-02 09:53:00,
2013-03-02 03:58:00,21.9,16.9,29.36,NW,315,0.0,0.0,81,0.00,,,0.00,WUHU216HW,2013-03-02 09:58:00,
2013-03-02 04:03:00,21.9,16.9,29.36,NW,315,0.0,0.0,81,0.00,,,0.00,WUHU216HW,2013-03-02 10:03:00,
2013-03-02 04:09:00,21.9,16.9,29.36,NW,315,5.5,5.5,81,0.00,,,0.00,WUHU216HW,2013-03-02 10:09:00,
2013-03-02 04:14:00,21.9,16.9,29.35,NW,315,0.0,5.5,81,0.00,,,0.00,WUHU216HW,2013-03-02 10:14:00,
2013-03-02 04:19:00,21.9,16.9,29.36,NW,315,0.0,0.0,81,0.00,,,0.00,WUHU216HW,2013-03-02 10:19:00,
2013-03-02 04:24:00,21.9,16.9,29.36,NW,315,0.0,4.9,81,0.00,,,0.00,WUHU216HW,2013-03-02 10:24:00,
2013-03-02 04:29:00,21.9,16.9,29.36,NW,315,0.0,4.9,81,0.00,,,0.00,WUHU216HW,2013-03-02 10:29:00,
2013-03-02 04:34:00,21.9,16.9,29.36,NW,315,0.0,0.0,81,0.00,,,0.00,WUHU216HW,2013-03-02 10:34:00,
2013-03-02 04:39:00,21.9,16.7,29.36,NW,315,0.0,0.0,80,0.00,,,0.00,WUHU216HW,2013-03-02 10:39:00,
2013-03-02 04:44:00,21.9,16.7,29.36,NW,315,0.0,0.0,80,0.00,,,0.00,WUHU216HW,2013-03-02 10:44:00,
2013-03-02 04:49:00,22.1,16.8,29.37,NW,315,0.0,0.0,80,0.00,,,0.00,WUHU216HW,2013-03-02 10:49:00,
2013-03-02 04:54:00,22.1,16.8,29.37,NW,315,4.4,4.4,80,0.00,,,0.00,WUHU216HW,2013-03-02 10:54:00,
2013-03-02 04:59:00,22.1,16.8,29.37,NW,315,0.0,4.4,80,0.00,,,0.00,WUHU216HW,2013-03-02 10:59:00,
2013-03-02 05:04:00,22.2,16.7,29.37,NW,315,0.0,4.4,79,0.00,,,0.00,WUHU216HW,2013-03-02 11:04:00,
2013-03-02 05:09:00,22.2,16.7,29.37,NW,315,0.0,3.8,79,0.00,,,0.00,WUHU216HW,2013-03-02 11:09:00,
2013-03-02 05:14:00,22.2,16.4,29.37,NW,315,6.0,6.0,78,0.00,,,0.00,WUHU216HW,2013-03-02 11:14:00,
2013-03-02 05:19:00,22.2,16.4,29.37,NW,315,0.0,6.0,78,0.00,,,0.00,WUHU216HW,2013-03-02 11:19:00,
2013-03-02 05:25:00,22.4,16.6,29.37,NW,315,0.0,0.0,78,0.00,,,0.00,WUHU216HW,2013-03-02 11:25:00,
2013-03-02 05:30:00,22.4,16.6,29.37,NW,315,0.0,0.0,78,0.00,,,0.00,WUHU216HW,2013-03-02 11:30:00,
2013-03-02 05:35:00,22.4,16.3,29.37,NW,315,0.0,3.5,77,0.00,,,0.00,WUHU216HW,2013-03-02 11:35:00,
2013-03-02 05:40:00,22.4,16.3,29.38,NW,315,0.0,5.5,77,0.00,,,0.00,WUHU216HW,2013-03-02 11:40:00,
2013-03-02 05:45:00,22.6,16.5,29.38,NNW,338,0.0,5.5,77,0.00,,,0.00,WUHU216HW,2013-03-02 11:45:00,
2013-03-02 05:50:00,22.6,16.1,29.38,NNW,338,0.0,4.9,76,0.00,,,0.00,WUHU216HW,2013-03-02 11:50:00,
2013-03-02 05:55:00,22.6,16.1,29.38,NNW,338,0.0,4.9,76,0.00,,,0.00,WUHU216HW,2013-03-02 11:55:00,
2013-03-02 06:00:00,22.6,16.1,29.39,NNW,338,2.4,2.4,76,0.00,,,0.00,WUHU216HW,2013-03-02 12:00:00,
2013-03-02 06:05:00,22.6,16.1,29.38,NNW,338,0.0,2.4,76,0.00,,,0.00,WUHU216HW,2013-03-02 12:05:00,
2013-03-02 06:10:00,22.6,15.8,29.39,North,0,2.0,7.3,75,0.00,,,0.00,WUHU216HW,2013-03-02 12:10:00,
2013-03-02 06:15:00,22.6,15.8,29.39,NNW,338,6.4,7.3,75,0.00,,,0.00,WUHU216HW,2013-03-02 12:15:00,
2013-03-02 06:20:00,22.6,15.8,29.39,NNW,338,0.0,6.4,75,0.00,,,0.00,WUHU216HW,2013-03-02 12:20:00,
2013-03-02 06:25:00,22.6,15.8,29.39,NNW,338,0.0,6.7,75,0.00,,,0.00,WUHU216HW,2013-03-02 12:25:00,
2013-03-02 06:30:00,22.6,15.8,29.39,NNW,338,6.7,6.7,75,0.00,,,0.00,WUHU216HW,2013-03-02 12:30:00,
2013-03-02 06:35:00,22.6,15.5,29.39,NNW,338,0.0,6.7,74,0.00,,,0.00,WUHU216HW,2013-03-02 12:35:00,
2013-03-02 06:40:00,22.6,15.5,29.39,North,0,7.6,8.5,74,0.00,,,0.00,WUHU216HW,2013-03-02 12:40:00,
2013-03-02 06:45:00,22.6,15.5,29.39,NNW,338,0.0,8.5,74,0.00,,,0.00,WUHU216HW,2013-03-02 12:45:00,
2013-03-02 06:50:00,22.4,15.4,29.39,NNW,338,6.9,6.9,74,0.00,,,0.00,WUHU216HW,2013-03-02 12:50:00,
2013-03-02 06:55:00,22.4,15.4,29.39,North,0,5.1,7.3,74,0.00,,,0.00,WUHU216HW,2013-03-02 12:55:00,
2013-03-02 07:00:00,22.4,15.4,29.39,NNW,338,1.5,7.6,74,0.00,,,0.00,WUHU216HW,2013-03-02 13:00:00,
2013-03-02 07:05:00,22.6,15.5,29.39,NNW,338,0.0,7.6,74,0.00,,,0.00,WUHU216HW,2013-03-02 13:05:00,
2013-03-02 07:10:00,22.6,15.5,29.39,NNW,338,3.3,6.7,74,0.00,,,0.00,WUHU216HW,2013-03-02 13:10:00,
2013-03-02 07:16:00,22.6,15.5,29.39,NNW,338,9.1,9.1,74,0.00,,,0.00,WUHU216HW,2013-03-02 13:16:00,
2013-03-02 07:21:00,22.6,15.5,29.39,NW,315,8.7,9.1,74,0.00,,,0.00,WUHU216HW,2013-03-02 13:21:00,
2013-03-02 07:26:00,22.8,15.4,29.39,North,0,7.6,9.1,73,0.00,,,0.00,WUHU216HW,2013-03-02 13:26:00,
2013-03-02 07:31:00,22.8,15.4,29.39,NNW,338,5.3,8.7,73,0.00,,,0.00,WUHU216HW,2013-03-02 13:31:00,
2013-03-02 07:36:00,22.8,15.1,29.39,NNW,338,6.0,6.0,72,0.00,,,0.00,WUHU216HW,2013-03-02 13:36:00,
2013-03-02 07:41:00,22.8,15.1,29.39,North,0,16.5,16.5,72,0.00,,,0.00,WUHU216HW,2013-03-02 13:41:00,
2013-03-02 07:46:00,22.8,15.1,29.39,NW,315,4.6,16.5,72,0.00,,,0.00,WUHU216HW,2013-03-02 13:46:00,
2013-03-02 07:51:00,23.1,15.4,29.39,North,0,6.9,8.2,72,0.00,,,0.00,WUHU216HW,2013-03-02 13:51:00,
2013-03-02 07:56:00,23.1,15.4,29.39,NNW,338,4.6,6.9,72,0.00,,,0.00,WUHU216HW,2013-03-02 13:56:00,
2013-03-02 08:01:00,23.3,15.3,29.39,North,0,0.0,6.9,71,0.00,,,0.00,WUHU216HW,2013-03-02 14:01:00,
2013-03-02 08:06:00,23.7,15.6,29.39,North,0,6.7,6.7,71,0.00,,,0.00,WUHU216HW,2013-03-02 14:06:00,
2013-03-02 08:11:00,23.9,15.8,29.39,NNW,338,6.0,8.7,71,0.00,,,0.00,WUHU216HW,2013-03-02 14:11:00,
2013-03-02 08:16:00,24.0,15.9,29.39,North,0,7.6,8.7,71,0.00,,,0.00,WUHU216HW,2013-03-02 14:16:00,
2013-03-02 08:21:00,24.0,15.6,29.39,NNW,338,0.0,8.2,70,0.00,,,0.00,WUHU216HW,2013-03-02 14:21:00,
2013-03-02 08:26:00,24.4,16.0,29.39,North,0,0.8,8.2,70,0.00,,,0.00,WUHU216HW,2013-03-02 14:26:00,
2013-03-02 08:31:00,24.6,15.8,29.39,North,0,0.0,8.2,69,0.00,,,0.00,WUHU216HW,2013-03-02 14:31:00,
2013-03-02 08:36:00,24.6,15.4,29.39,North,0,8.2,8.2,68,0.00,,,0.00,WUHU216HW,2013-03-02 14:36:00,
2013-03-02 08:41:00,24.6,15.4,29.38,NNE,23,6.2,8.2,68,0.00,,,0.00,WUHU216HW,2013-03-02 14:41:00,
2013-03-02 08:46:00,24.6,15.1,29.39,NNW,338,3.3,8.7,67,0.00,,,0.00,WUHU216HW,2013-03-02 14:46:00,
2013-03-02 08:51:00,24.4,14.9,29.39,NNW,338,3.3,8.7,67,0.00,,,0.00,WUHU216HW,2013-03-02 14:51:00,
2013-03-02 08:56:00,24.4,14.9,29.38,North,0,5.3,5.3,67,0.00,,,0.00,WUHU216HW,2013-03-02 14:56:00,
2013-03-02 09:01:00,24.8,15.3,29.39,NNW,338,5.3,9.8,67,0.00,,,0.00,WUHU216HW,2013-03-02 15:01:00,
2013-03-02 09:06:00,24.9,15.4,29.39,North,0,8.0,9.8,67,0.00,,,0.00,WUHU216HW,2013-03-02 15:06:00,
2013-03-02 09:11:00,25.3,15.4,29.39,NNW,338,1.1,8.0,66,0.00,,,0.00,WUHU216HW,2013-03-02 15:11:00,
2013-03-02 09:16:00,25.5,15.6,29.39,NNW,338,5.8,8.0,66,0.00,,,0.00,WUHU216HW,2013-03-02 15:16:00,
2013-03-02 09:21:00,25.7,15.8,29.39,NW,315,6.9,6.9,66,0.00,,,0.00,WUHU216HW,2013-03-02 15:21:00,
2013-03-02 09:26:00,26.0,16.1,29.39,NW,315,4.0,6.9,66,0.00,,,0.00,WUHU216HW,2013-03-02 15:26:00,
2013-03-02 09:32:00,26.7,16.5,29.39,NNW,338,7.6,7.6,65,0.00,,,0.00,WUHU216HW,2013-03-02 15:32:00,
2013-03-02 09:37:00,27.5,17.2,29.39,NNW,338,4.4,7.6,65,0.00,,,0.00,WUHU216HW,2013-03-02 15:37:00,
2013-03-02 09:42:00,28.2,17.2,29.39,NNW,338,4.4,8.7,63,0.00,,,0.00,WUHU216HW,2013-03-02 15:42:00,
2013-03-02 09:47:00,28.2,17.2,29.39,NW,315,6.2,8.7,63,0.00,,,0.00,WUHU216HW,2013-03-02 15:47:00,
2013-03-02 09:52:00,29.1,18.0,29.39,NW,315,0.0,6.2,63,0.00,,,0.00,WUHU216HW,2013-03-02 15:52:00,
2013-03-02 09:57:00,30.2,18.6,29.40,NW,315,0.0,6.4,62,0.00,,,0.00,WUHU216HW,2013-03-02 15:57:00,
2013-03-02 10:02:00,31.1,19.2,29.40,NNW,338,0.0,6.4,61,0.00,,,0.00,WUHU216HW,2013-03-02 16:02:00,
2013-03-02 10:07:00,31.2,19.0,29.40,NNW,338,0.0,0.0,60,0.00,,,0.00,WUHU216HW,2013-03-02 16:07:00,
2013-03-02 10:12:00,32.1,19.9,29.40,NW,315,4.6,4.6,60,0.00,,,0.00,WUHU216HW,2013-03-02 16:12:00,
2013-03-02 10:17:00,32.7,18.6,29.41,North,0,5.3,5.3,56,0.00,,,0.00,WUHU216HW,2013-03-02 16:17:00,
2013-03-02 10:22:00,31.8,17.8,29.40,North,0,0.0,7.6,56,0.00,,,0.00,WUHU216HW,2013-03-02 16:22:00,
2013-03-02 10:27:00,32.5,18.9,29.40,NW,315,2.9,7.6,57,0.00,,,0.00,WUHU216HW,2013-03-02 16:27:00,
2013-03-02 10:32:00,32.1,18.1,29.40,NNW,338,0.0,2.9,56,0.00,,,0.00,WUHU216HW,2013-03-02 16:32:00,
2013-03-02 10:37:00,31.2,17.3,29.41,North,0,6.0,7.1,56,0.00,,,0.00,WUHU216HW,2013-03-02 16:37:00,
2013-03-02 10:43:00,32.7,18.6,29.41,North,0,0.0,7.1,56,0.00,,,0.00,WUHU216HW,2013-03-02 16:43:00,
2013-03-02 10:48:00,35.4,19.9,29.41,NW,315,0.0,6.0,53,0.00,,,0.00,WUHU216HW,2013-03-02 16:48:00,
2013-03-02 10:53:00,35.7,19.8,29.41,NNW,338,6.0,7.3,52,0.00,,,0.00,WUHU216HW,2013-03-02 16:53:00,
2013-03-02 10:58:00,35.4,19.5,29.41,NW,315,6.7,7.3,52,0.00,,,0.00,WUHU216HW,2013-03-02 16:58:00,
2013-03-02 11:03:00,37.5,21.0,29.41,NNW,338,6.4,6.7,51,0.00,,,0.00,WUHU216HW,2013-03-02 17:03:00,
2013-03-02 11:08:00,36.6,19.3,29.41,NNW,338,0.0,6.4,49,0.00,,,0.00,WUHU216HW,2013-03-02 17:08:00,
2013-03-02 11:13:00,35.9,19.1,29.41,NNW,338,6.2,8.7,50,0.00,,,0.00,WUHU216HW,2013-03-02 17:13:00,
2013-03-02 11:18:00,37.9,21.3,29.40,NW,315,0.0,8.7,51,0.00,,,0.00,WUHU216HW,2013-03-02 17:18:00,
2013-03-02 11:24:00,37.2,19.7,29.40,NNW,338,6.7,6.7,49,0.00,,,0.00,WUHU216HW,2013-03-02 17:24:00,
2013-03-02 11:29:00,36.5,20.1,29.39,NW,315,0.0,6.7,51,0.00,,,0.00,WUHU216HW,2013-03-02 17:29:00,
2013-03-02 11:34:00,38.1,21.1,29.39,NW,315,1.1,1.1,50,0.00,,,0.00,WUHU216HW,2013-03-02 17:34:00,
2013-03-02 11:39:00,39.3,21.4,29.39,WNW,293,0.0,3.5,49,0.00,,,0.00,WUHU216HW,2013-03-02 17:39:00,
2013-03-02 11:44:00,39.3,20.6,29.39,NW,315,6.9,6.9,47,0.00,,,0.00,WUHU216HW,2013-03-02 17:44:00,
2013-03-02 11:49:00,38.8,20.2,29.39,NW,315,0.0,6.9,47,0.00,,,0.00,WUHU216HW,2013-03-02 17:49:00,
2013-03-02 11:54:00,39.3,20.3,29.39,NW,315,0.0,7.3,47,0.00,,,0.00,WUHU216HW,2013-03-02 17:54:00,
2013-03-02 11:59:00,39.3,20.1,29.39,West,270,1.3,7.3,46,0.00,,,0.00,WUHU216HW,2013-03-02 17:59:00,
2013-03-02 12:04:00,39.3,20.6,29.38,WNW,293,0.0,1.3,47,0.00,,,0.00,WUHU216HW,2013-03-02 18:04:00,
2013-03-02 12:09:00,39.3,20.1,29.38,WNW,293,0.0,1.3,46,0.00,,,0.00,WUHU216HW,2013-03-02 18:09:00,
2013-03-02 12:14:00,39.9,20.6,29.39,WNW,293,0.0,0.0,46,0.00,,,0.00,WUHU216HW,2013-03-02 18:14:00,
2013-03-02 12:19:00,40.2,20.9,29.38,WNW,293,0.0,2.4,46,0.00,,,0.00,WUHU216HW,2013-03-02 18:19:00,
2013-03-02 12:25:00,41.5,21.6,29.38,West,270,0.0,2.4,45,0.00,,,0.00,WUHU216HW,2013-03-02 18:25:00,
2013-03-02 12:30:00,41.5,21.0,29.38,NW,315,0.0,0.0,44,0.00,,,0.00,WUHU216HW,2013-03-02 18:30:00,
2013-03-02 12:35:00,40.2,20.4,29.38,NNW,338,0.0,0.0,45,0.00,,,0.00,WUHU216HW,2013-03-02 18:35:00,
2013-03-02 12:40:00,41.1,21.2,29.38,NNW,338,0.0,0.0,45,0.00,,,0.00,WUHU216HW,2013-03-02 18:40:00,
2013-03-02 12:45:00,41.9,21.4,29.38,NNW,338,0.0,0.0,44,0.00,,,0.00,WUHU216HW,2013-03-02 18:45:00,
2013-03-02 12:50:00,42.0,21.0,29.37,NW,315,0.0,6.4,43,0.00,,,0.00,WUHU216HW,2013-03-02 18:50:00,
2013-03-02 12:55:00,42.4,21.3,29.37,NW,315,1.1,6.4,43,0.00,,,0.00,WUHU216HW,2013-03-02 18:55:00,
2013-03-02 13:00:00,42.0,20.5,29.36,NW,315,0.0,4.0,42,0.00,,,0.00,WUHU216HW,2013-03-02 19:00:00,
2013-03-02 13:05:00,41.7,20.7,29.36,NW,315,0.0,6.4,43,0.00,,,0.00,WUHU216HW,2013-03-02 19:05:00,
2013-03-02 13:10:00,42.9,21.9,29.35,NW,315,0.0,6.4,43,0.00,,,0.00,WUHU216HW,2013-03-02 19:10:00,
2013-03-02 13:15:00,43.5,21.3,29.35,NW,315,0.0,0.0,41,0.00,,,0.00,WUHU216HW,2013-03-02 19:15:00,
2013-03-02 13:20:00,42.6,21.0,29.35,NW,315,0.0,3.8,42,0.00,,,0.00,WUHU216HW,2013-03-02 19:20:00,
2013-03-02 13:26:00,42.6,21.3,29.36,NW,315,0.0,3.8,42,0.00,,,0.00,WUHU216HW,2013-03-02 19:26:00,
2013-03-02 13:31:00,42.0,20.5,29.35,NW,315,0.0,0.0,42,0.00,,,0.00,WUHU216HW,2013-03-02 19:31:00,
2013-03-02 13:36:00,41.7,20.1,29.35,NW,315,0.0,6.0,42,0.00,,,0.00,WUHU216HW,2013-03-02 19:36:00,
2013-03-02 13:41:00,41.5,20.5,29.35,NW,315,0.0,6.0,43,0.00,,,0.00,WUHU216HW,2013-03-02 19:41:00,
2013-03-02 13:46:00,41.5,20.5,29.34,NW,315,0.0,0.0,43,0.00,,,0.00,WUHU216HW,2013-03-02 19:46:00,
2013-03-02 13:51:00,44.2,23.0,29.34,NW,315,0.0,0.0,43,0.00,,,0.00,WUHU216HW,2013-03-02 19:51:00,
2013-03-02 13:56:00,43.8,21.6,29.34,NW,315,0.0,0.0,41,0.00,,,0.00,WUHU216HW,2013-03-02 19:56:00,
2013-03-02 14:01:00,43.5,21.3,29.34,NW,315,0.0,0.0,41,0.00,,,0.00,WUHU216HW,2013-03-02 20:01:00,
2013-03-02 14:06:00,42.0,19.9,29.34,NW,315,5.3,5.3,41,0.00,,,0.00,WUHU216HW,2013-03-02 20:06:00,
2013-03-02 14:11:00,41.5,20.0,29.34,NW,315,5.3,5.3,42,0.00,,,0.00,WUHU216HW,2013-03-02 20:11:00,
2013-03-02 14:16:00,40.6,19.7,29.33,NW,315,0.0,5.3,43,0.00,,,0.00,WUHU216HW,2013-03-02 20:16:00,
2013-03-02 14:21:00,39.9,19.0,29.33,NW,315,0.0,5.3,43,0.00,,,0.00,WUHU216HW,2013-03-02 20:21:00,
2013-03-02 14:26:00,39.7,19.4,29.33,WSW,248,3.5,3.5,44,0.00,,,0.00,WUHU216HW,2013-03-02 20:26:00,
2013-03-02 14:31:00,41.1,21.2,29.33,WSW,248,3.5,3.5,45,0.00,,,0.00,WUHU216HW,2013-03-02 20:31:00,
2013-03-02 14:36:00,41.7,20.7,29.33,WSW,248,3.5,3.5,43,0.00,,,0.00,WUHU216HW,2013-03-02 20:36:00,
2013-03-02 14:42:00,40.2,19.4,29.33,WSW,248,0.0,3.5,43,0.00,,,0.00,WUHU216HW,2013-03-02 20:42:00,
2013-03-02 14:47:00,39.7,19.4,29.33,WSW,248,0.0,0.0,44,0.00,,,0.00,WUHU216HW,2013-03-02 20:47:00,
2013-03-02 14:52:00,40.6,20.7,29.33,WSW,248,0.0,0.0,45,0.00,,,0.00,WUHU216HW,2013-03-02 20:52:00,
2013-03-02 14:57:00,41.9,21.9,29.33,WSW,248,0.0,0.0,45,0.00,,,0.00,WUHU216HW,2013-03-02 20:57:00,
2013-03-02 15:02:00,42.4,21.3,29.33,WSW,248,0.0,0.0,43,0.00,,,0.00,WUHU216HW,2013-03-02 21:02:00,
2013-03-02 15:07:00,41.7,20.7,29.33,WSW,248,0.0,0.0,43,0.00,,,0.00,WUHU216HW,2013-03-02 21:07:00,
2013-03-02 15:12:00,41.3,20.9,29.33,WSW,248,0.0,0.0,44,0.00,,,0.00,WUHU216HW,2013-03-02 21:12:00,
2013-03-02 15:17:00,40.4,20.1,29.33,WSW,248,0.0,0.0,44,0.00,,,0.00,WUHU216HW,2013-03-02 21:17:00,
2013-03-02 15:22:00,39.3,19.6,29.33,WSW,248,0.0,0.0,45,0.00,,,0.00,WUHU216HW,2013-03-02 21:22:00,
2013-03-02 15:27:00,39.0,19.8,29.33,WSW,248,0.0,0.0,46,0.00,,,0.00,WUHU216HW,2013-03-02 21:27:00,
2013-03-02 15:32:00,39.3,20.1,29.33,WSW,248,0.0,0.0,46,0.00,,,0.00,WUHU216HW,2013-03-02 21:32:00,
2013-03-02 15:37:00,38.8,19.6,29.33,WSW,248,0.0,0.0,46,0.00,,,0.00,WUHU216HW,2013-03-02 21:37:00,
2013-03-02 15:43:00,38.4,19.8,29.33,WSW,248,0.0,0.0,47,0.00,,,0.00,WUHU216HW,2013-03-02 21:43:00,
2013-03-02 15:48:00,38.4,19.8,29.32,WSW,248,0.0,6.2,47,0.00,,,0.00,WUHU216HW,2013-03-02 21:48:00,
2013-03-02 15:53:00,38.3,19.7,29.32,WSW,248,0.0,6.2,47,0.00,,,0.00,WUHU216HW,2013-03-02 21:53:00,
2013-03-02 15:58:00,37.5,19.0,29.32,WSW,248,6.0,6.0,47,0.00,,,0.00,WUHU216HW,2013-03-02 21:58:00,
2013-03-02 16:03:00,36.8,18.9,29.32,WSW,248,2.9,6.0,48,0.00,,,0.00,WUHU216HW,2013-03-02 22:03:00,
2013-03-02 16:08:00,36.1,18.8,29.32,WSW,248,0.0,6.0,49,0.00,,,0.00,WUHU216HW,2013-03-02 22:08:00,
2013-03-02 16:13:00,35.4,18.1,29.32,WSW,248,0.0,2.9,49,0.00,,,0.00,WUHU216HW,2013-03-02 22:13:00,
2013-03-02 16:18:00,34.8,18.1,29.31,WSW,248,0.0,0.0,50,0.00,,,0.00,WUHU216HW,2013-03-02 22:18:00,
2013-03-02 16:23:00,34.3,17.6,29.31,WSW,248,0.0,0.0,50,0.00,,,0.00,WUHU216HW,2013-03-02 22:23:00,
2013-03-02 16:28:00,33.9,17.6,29.31,WSW,248,0.0,0.0,51,0.00,,,0.00,WUHU216HW,2013-03-02 22:28:00,
2013-03-02 16:33:00,33.6,17.3,29.31,South,180,0.0,0.0,51,0.00,,,0.00,WUHU216HW,2013-03-02 22:33:00,
2013-03-02 16:38:00,32.9,17.1,29.31,South,180,0.0,0.0,52,0.00,,,0.00,WUHU216HW,2013-03-02 22:38:00,
2013-03-02 16:43:00,32.1,16.8,29.31,SW,225,0.0,0.0,53,0.00,,,0.00,WUHU216HW,2013-03-02 22:43:00,
2013-03-02 16:48:00,31.8,16.5,29.31,SW,225,0.0,0.0,53,0.00,,,0.00,WUHU216HW,2013-03-02 22:48:00,
2013-03-02 16:53:00,31.6,16.8,29.31,SSW,203,0.0,0.0,54,0.00,,,0.00,WUHU216HW,2013-03-02 22:53:00,
2013-03-02 16:58:00,31.1,16.7,29.31,SSW,203,0.0,0.0,55,0.00,,,0.00,WUHU216HW,2013-03-02 22:58:00,
2013-03-02 17:03:00,30.9,16.5,29.31,SSW,203,0.0,0.0,55,0.00,,,0.00,WUHU216HW,2013-03-02 23:03:00,
2013-03-02 17:08:00,30.7,16.8,29.31,SSW,203,0.0,0.0,56,0.00,,,0.00,WUHU216HW,2013-03-02 23:08:00,
2013-03-02 17:14:00,30.3,16.4,29.31,SSW,203,0.0,0.0,56,0.00,,,0.00,WUHU216HW,2013-03-02 23:14:00,
2013-03-02 17:19:00,30.0,16.1,29.31,SSW,203,0.0,0.0,56,0.00,,,0.00,WUHU216HW,2013-03-02 23:19:00,
2013-03-02 17:24:00,30.0,16.1,29.31,SSW,203,0.0,0.0,56,0.00,,,0.00,WUHU216HW,2013-03-02 23:24:00,
2013-03-02 17:29:00,29.6,16.2,29.31,SSW,203,0.0,0.0,57,0.00,,,0.00,WUHU216HW,2013-03-02 23:29:00,
2013-03-02 17:34:00,29.4,16.0,29.31,SSW,203,0.0,0.0,57,0.00,,,0.00,WUHU216HW,2013-03-02 23:34:00,
2013-03-02 17:39:00,29.1,16.1,29.31,SSW,203,0.0,0.0,58,0.00,,,0.00,WUHU216HW,2013-03-02 23:39:00,
2013-03-02 17:44:00,28.5,15.6,29.31,SSW,203,0.0,0.0,58,0.00,,,0.00,WUHU216HW,2013-03-02 23:44:00,
2013-03-02 17:49:00,28.2,15.7,29.31,SSW,203,0.0,0.0,59,0.00,,,0.00,WUHU216HW,2013-03-02 23:49:00,
2013-03-02 17:54:00,27.8,15.3,29.31,SSW,203,0.0,0.0,59,0.00,,,0.00,WUHU216HW,2013-03-02 23:54:00,
2013-03-02 17:59:00,27.6,15.2,29.31,SSW,203,0.0,0.0,59,0.00,,,0.00,WUHU216HW,2013-03-02 23:59:00,
2013-03-02 18:04:00,27.1,14.6,29.31,SSW,203,0.0,0.0,59,0.00,,,0.00,WUHU216HW,2013-03-03 00:04:00,
2013-03-02 18:09:00,26.4,14.3,29.31,SSW,203,0.0,0.0,60,0.00,,,0.00,WUHU216HW,2013-03-03 00:09:00,
2013-03-02 18:14:00,25.8,13.8,29.31,SSW,203,0.0,0.0,60,0.00,,,0.00,WUHU216HW,2013-03-03 00:14:00,
2013-03-02 18:20:00,25.7,14.4,29.31,SSW,203,0.0,0.0,62,0.00,,,0.00,WUHU216HW,2013-03-03 00:20:00,
2013-03-02 18:25:00,25.1,14.2,29.30,SSW,203,0.0,0.0,63,0.00,,,0.00,WUHU216HW,2013-03-03 00:25:00,
2013-03-02 18:30:00,24.9,14.4,29.30,SSW,203,0.0,0.0,64,0.00,,,0.00,WUHU216HW,2013-03-03 00:30:00,
2013-03-02 18:35:00,24.6,14.4,29.31,SSW,203,0.0,0.0,65,0.00,,,0.00,WUHU216HW,2013-03-03 00:35:00,
2013-03-02 18:40:00,24.6,14.4,29.31,SSW,203,0.0,0.0,65,0.00,,,0.00,WUHU216HW,2013-03-03 00:40:00,
2013-03-02 18:45:00,24.8,14.4,29.31,SSW,203,0.0,0.0,65,0.00,,,0.00,WUHU216HW,2013-03-03 00:45:00,
2013-03-02 18:50:00,24.9,14.7,29.31,SSW,203,0.0,0.0,65,0.00,,,0.00,WUHU216HW,2013-03-03 00:50:00,
2013-03-02 18:55:00,24.9,14.7,29.31,SSW,203,0.0,0.0,65,0.00,,,0.00,WUHU216HW,2013-03-03 00:55:00,
2013-03-02 19:00:00,24.4,14.6,29.31,SSW,203,0.0,0.0,66,0.00,,,0.00,WUHU216HW,2013-03-03 01:00:00,
2013-03-02 19:05:00,24.0,14.2,29.32,SSW,203,0.0,0.0,66,0.00,,,0.00,WUHU216HW,2013-03-03 01:05:00,
2013-03-02 19:10:00,23.9,14.1,29.31,SSW,203,0.0,0.0,66,0.00,,,0.00,WUHU216HW,2013-03-03 01:10:00,
2013-03-02 19:15:00,23.1,13.4,29.31,SSW,203,0.0,0.0,66,0.00,,,0.00,WUHU216HW,2013-03-03 01:15:00,
2013-03-02 19:20:00,22.6,12.9,29.30,SSW,203,0.0,0.0,66,0.00,,,0.00,WUHU216HW,2013-03-03 01:20:00,
2013-03-02 19:25:00,22.2,13.2,29.30,SSW,203,0.0,0.0,68,0.00,,,0.00,WUHU216HW,2013-03-03 01:25:00,
2013-03-02 19:30:00,21.9,13.2,29.30,SSW,203,0.0,0.0,69,0.00,,,0.00,WUHU216HW,2013-03-03 01:30:00,
2013-03-02 19:35:00,21.9,13.6,29.30,SSW,203,0.0,0.0,70,0.00,,,0.00,WUHU216HW,2013-03-03 01:35:00,
2013-03-02 19:41:00,21.9,13.6,29.29,SSW,203,0.0,0.0,70,0.00,,,0.00,WUHU216HW,2013-03-03 01:41:00,
2013-03-02 19:46:00,21.9,13.9,29.29,SSW,203,0.0,0.0,71,0.00,,,0.00,WUHU216HW,2013-03-03 01:46:00,
2013-03-02 19:51:00,21.9,13.9,29.29,SSW,203,0.0,0.0,71,0.00,,,0.00,WUHU216HW,2013-03-03 01:51:00,
2013-03-02 19:56:00,22.1,14.1,29.29,SSW,203,0.0,0.0,71,0.00,,,0.00,WUHU216HW,2013-03-03 01:56:00,
2013-03-02 20:01:00,22.1,14.1,29.29,SSW,203,0.0,0.0,71,0.00,,,0.00,WUHU216HW,2013-03-03 02:01:00,
2013-03-02 20:07:00,22.1,14.1,29.28,SSW,203,0.0,0.0,71,0.00,,,0.00,WUHU216HW,2013-03-03 02:07:00,
2013-03-02 20:12:00,22.1,14.1,29.29,SSW,203,0.0,0.0,71,0.00,,,0.00,WUHU216HW,2013-03-03 02:12:00,
2013-03-02 20:17:00,22.1,14.1,29.29,SSW,203,0.0,0.0,71,0.00,,,0.00,WUHU216HW,2013-03-03 02:17:00,
2013-03-02 20:22:00,22.4,14.4,29.29,SSW,203,0.0,0.0,71,0.00,,,0.00,WUHU216HW,2013-03-03 02:22:00,
2013-03-02 20:27:00,22.8,14.8,29.28,SSW,203,0.0,0.0,71,0.00,,,0.00,WUHU216HW,2013-03-03 02:27:00,
2013-03-02 20:32:00,23.0,15.0,29.29,SSW,203,0.0,0.0,71,0.00,,,0.00,WUHU216HW,2013-03-03 02:32:00,
2013-03-02 20:37:00,23.3,15.3,29.28,SSW,203,0.0,0.0,71,0.00,,,0.00,WUHU216HW,2013-03-03 02:37:00,
2013-03-02 20:42:00,23.5,15.8,29.28,SSW,203,0.0,0.0,72,0.00,,,0.00,WUHU216HW,2013-03-03 02:42:00,
2013-03-02 20:47:00,23.7,15.9,29.28,SSW,203,0.0,0.0,72,0.00,,,0.00,WUHU216HW,2013-03-03 02:47:00,
2013-03-02 20:52:00,23.5,15.8,29.28,SSW,203,0.0,0.0,72,0.00,,,0.00,WUHU216HW,2013-03-03 02:52:00,
2013-03-02 20:57:00,23.5,15.8,29.28,SSW,203,0.0,0.0,72,0.00,,,0.00,WUHU216HW,2013-03-03 02:57:00,
2013-03-02 21:02:00,23.5,15.8,29.29,SSW,203,0.0,0.0,72,0.00,,,0.00,WUHU216HW,2013-03-03 03:02:00,
2013-03-02 21:08:00,23.5,15.8,29.29,SSW,203,0.0,0.0,72,0.00,,,0.00,WUHU216HW,2013-03-03 03:08:00,
2013-03-02 21:13:00,23.5,15.8,29.28,SSW,203,0.0,0.0,72,0.00,,,0.00,WUHU216HW,2013-03-03 03:13:00,
2013-03-02 21:18:00,23.5,16.1,29.29,SSW,203,0.0,0.0,73,0.00,,,0.00,WUHU216HW,2013-03-03 03:18:00,
2013-03-02 21:23:00,23.7,16.3,29.28,SSW,203,0.0,0.0,73,0.00,,,0.00,WUHU216HW,2013-03-03 03:23:00,
2013-03-02 21:28:00,24.0,16.6,29.28,SSW,203,0.0,0.0,73,0.00,,,0.00,WUHU216HW,2013-03-03 03:28:00,
2013-03-02 21:33:00,24.2,16.8,29.28,SSW,203,0.0,0.0,73,0.00,,,0.00,WUHU216HW,2013-03-03 03:33:00,
2013-03-02 21:38:00,24.4,16.9,29.28,SSW,203,0.0,0.0,73,0.00,,,0.00,WUHU216HW,2013-03-03 03:38:00,
2013-03-02 21:43:00,24.6,17.1,29.28,SSW,203,0.0,0.0,73,0.00,,,0.00,WUHU216HW,2013-03-03 03:43:00,
2013-03-02 21:48:00,24.6,17.1,29.28,SSW,203,0.0,0.0,73,0.00,,,0.00,WUHU216HW,2013-03-03 03:48:00,
2013-03-02 21:53:00,24.6,17.1,29.28,SSW,203,0.0,0.0,73,0.00,,,0.00,WUHU216HW,2013-03-03 03:53:00,
2013-03-02 21:58:00,24.6,17.1,29.28,SSW,203,0.0,0.0,73,0.00,,,0.00,WUHU216HW,2013-03-03 03:58:00,
2013-03-02 22:03:00,24.6,17.1,29.27,SSW,203,0.0,0.0,73,0.00,,,0.00,WUHU216HW,2013-03-03 04:03:00,
2013-03-02 22:08:00,24.6,17.1,29.27,SSW,203,0.0,0.0,73,0.00,,,0.00,WUHU216HW,2013-03-03 04:08:00,
2013-03-02 22:13:00,24.6,17.1,29.27,SSW,203,0.0,0.0,73,0.00,,,0.00,WUHU216HW,2013-03-03 04:13:00,
2013-03-02 22:19:00,24.6,17.1,29.27,SSW,203,0.0,0.0,73,0.00,,,0.00,WUHU216HW,2013-03-03 04:19:00,
2013-03-02 22:24:00,24.6,17.1,29.27,SSW,203,0.0,0.0,73,0.00,,,0.00,WUHU216HW,2013-03-03 04:24:00,
2013-03-02 22:29:00,24.6,17.1,29.27,SSW,203,0.0,0.0,73,0.00,,,0.00,WUHU216HW,2013-03-03 04:29:00,
2013-03-02 22:34:00,24.6,17.1,29.26,SSW,203,0.0,0.0,73,0.00,,,0.00,WUHU216HW,2013-03-03 04:34:00,
2013-03-02 22:39:00,24.6,17.4,29.26,SSW,203,0.0,0.0,74,0.00,,,0.00,WUHU216HW,2013-03-03 04:39:00,
2013-03-02 22:44:00,24.6,17.1,29.26,SSW,203,0.0,0.0,73,0.00,,,0.00,WUHU216HW,2013-03-03 04:44:00,
2013-03-02 22:49:00,24.9,17.7,29.25,SSW,203,0.0,0.0,74,0.00,,,0.00,WUHU216HW,2013-03-03 04:49:00,
2013-03-02 22:54:00,24.9,17.7,29.26,SSW,203,0.0,0.0,74,0.00,,,0.00,WUHU216HW,2013-03-03 04:54:00,
2013-03-02 22:59:00,24.9,17.7,29.25,SSW,203,0.0,0.0,74,0.00,,,0.00,WUHU216HW,2013-03-03 04:59:00,
2013-03-02 23:00:00,24.9,17.7,29.25,SSW,203,0.0,0.0,74,0.00,,,0.00,WUHU216HW,2013-03-03 05:00:00,
2013-03-02 23:01:00,25.1,17.9,29.25,SSW,203,0.0,0.0,74,0.00,,,0.00,WUHU216HW,2013-03-03 05:01:00,
2013-03-02 23:06:00,25.1,17.9,29.25,SSW,203,0.0,0.0,74,0.00,,,0.00,WUHU216HW,2013-03-03 05:06:00,
2013-03-02 23:11:00,25.1,17.9,29.25,SSW,203,0.0,0.0,74,0.00,,,0.00,WUHU216HW,2013-03-03 05:11:00,
2013-03-02 23:16:00,25.1,17.9,29.25,SSW,203,0.0,0.0,74,0.00,,,0.00,WUHU216HW,2013-03-03 05:16:00,
2013-03-02 23:21:00,25.1,18.1,29.25,SSW,203,0.0,0.0,74,0.00,,,0.00,WUHU216HW,2013-03-03 05:21:00,
2013-03-02 23:26:00,25.3,18.1,29.25,SSW,203,0.0,0.0,74,0.00,,,0.00,WUHU216HW,2013-03-03 05:26:00,
2013-03-02 23:32:00,25.5,18.3,29.25,SSW,203,0.0,0.0,74,0.00,,,0.00,WUHU216HW,2013-03-03 05:32:00,
2013-03-02 23:38:00,25.5,18.3,29.25,SSW,203,0.0,0.0,74,0.00,,,0.00,WUHU216HW,2013-03-03 05:38:00,
2013-03-02 23:43:00,25.5,18.3,29.25,SSW,203,0.0,0.0,74,0.00,,,0.00,WUHU216HW,2013-03-03 05:43:00,
2013-03-02 23:47:00,25.5,18.3,29.24,SSW,203,0.0,0.0,74,0.00,,,0.00,WUHU216HW,2013-03-03 05:47:00,
2013-03-02 23:49:00,25.5,18.3,29.25,SSW,203,0.0,0.0,74,0.00,,,0.00,WUHU216HW,2013-03-03 05:49:00,
2013-03-02 23:54:00,25.7,18.5,29.25,SSW,203,0.0,0.0,74,0.00,,,0.00,WUHU216HW,2013-03-03 05:54:00,
2013-03-02 23:59:00,25.7,18.5,29.24,SSW,203,0.0,0.0,74,0.00,,,0.00,WUHU216HW,2013-03-03 05:59:00,